N6RSX Weather Reports


time (UTC)temp
C
wind
direction
speed
KPH
gust
KPH
rain 1hr
cm
rain 24hr
cm
rain mn
cm
humidity
%
barometer
mb
20260503220350 18 252 6.4 16.1 0.00 0.00 0.00 59 1013.6
20260503215850 18 211 8.0 19.3 0.00 0.00 0.00 61 1013.7
20260503215350 18 209 8.0 19.3 0.00 0.00 0.00 59 1013.8
20260503214849 18 213 6.4 14.5 0.00 0.00 0.00 61 1013.7
20260503214347 18 335 6.4 16.1 0.00 0.00 0.00 62 1013.7
20260503213346 18 158 6.4 12.9 0.00 0.00 0.00 63 1013.7
20260503212844 18 211 4.8 12.9 0.00 0.00 0.00 63 1013.8
20260503212343 18 196 6.4 16.1 0.00 0.00 0.00 64 1013.7
20260503211843 18 136 8.0 16.1 0.00 0.00 0.00 64 1013.9
20260503211342 18 212 8.0 14.5 0.00 0.00 0.00 65 1013.9
20260503210843 18 209 6.4 14.5 0.00 0.00 0.00 65 1013.8
20260503205844 18 185 6.4 19.3 0.00 0.00 0.00 65 1013.9
20260503205343 18 178 8.0 14.5 0.00 0.00 0.00 65 1013.8
20260503204336 18 181 6.4 16.1 0.00 0.00 0.00 66 1013.9
20260503203829 18 142 6.4 17.7 0.00 0.00 0.00 67 1013.9
20260503203325 18 175 8.0 17.7 0.00 0.00 0.00 65 1013.9
20260503202819 18 187 6.4 17.7 0.00 0.00 0.00 66 1013.9
20260503202312 18 223 4.8 12.9 0.00 0.00 0.00 65 1014.0
20260503201806 18 185 6.4 16.1 0.00 0.00 0.00 66 1013.9
20260503201301 18 207 6.4 19.3 0.00 0.00 0.00 66 1013.9
20260503200755 18 208 6.4 19.3 0.00 0.00 0.00 67 1013.9
20260503200248 18 135 4.8 14.5 0.00 0.00 0.00 67 1014.1
20260503195743 18 182 6.4 14.5 0.00 0.00 0.00 68 1014.0
20260503195236 18 139 4.8 14.5 0.00 0.00 0.00 68 1014.0
20260503194730 18 148 3.2 12.9 0.00 0.00 0.00 69 1014.2
20260503194223 18 232 4.8 12.9 0.00 0.00 0.00 68 1014.2
20260503192705 17 163 3.2 11.3 0.00 0.00 0.00 70 1014.5
20260503192200 17 200 4.8 17.7 0.00 0.00 0.00 70 1014.6
20260503191655 17 201 6.4 17.7 0.00 0.00 0.00 70 1014.8
20260503191147 17 191 4.8 14.5 0.00 0.00 0.00 73 1014.6
20260503190643 17 196 4.8 14.5 0.00 0.00 0.00 72 1014.8
20260503190136 17 228 4.8 11.3 0.00 0.00 0.00 72 1014.8
20260503185631 16 229 4.8 9.7 0.00 0.00 0.00 73 1015.0
20260503185125 16 209 3.2 9.7 0.00 0.00 0.00 73 1015.0
20260503184618 16 207 1.6 9.7 0.00 0.00 0.00 74 1015.0
20260503184112 16 194 1.6 8.0 0.00 0.00 0.00 74 1015.1
20260503183607 16 235 4.8 8.0 0.00 0.00 0.00 74 1015.2
20260503183100 16 182 3.2 9.7 0.00 0.00 0.00 74 1015.2
20260503182553 16 175 3.2 9.7 0.00 0.00 0.00 74 1015.2
20260503182048 16 177 3.2 9.7 0.00 0.00 0.00 74 1015.1
20260503181035 16 174 3.2 11.3 0.00 0.00 0.00 74 1015.2
20260503180530 16 207 0.0 4.8 0.00 0.00 0.00 75 1015.2
20260503180024 16 269 3.2 8.0 0.00 0.00 0.00 76 1015.2
20260503175518 16 238 4.8 12.9 0.00 0.00 0.00 76 1015.1
20260503175013 16 209 4.8 12.9 0.00 0.00 0.00 76 1015.1
20260503174506 16 195 4.8 8.0 0.00 0.00 0.00 77 1015.1
20260503174000 16 200 1.6 8.0 0.00 0.00 0.00 77 1015.1
20260503173455 15 204 1.6 8.0 0.00 0.00 0.00 79 1015.0
20260503172947 15 229 4.8 9.7 0.00 0.00 0.00 80 1014.9
20260503171936 16 217 4.8 9.7 0.00 0.00 0.00 80 1014.8
20260503171430 16 215 4.8 9.7 0.00 0.00 0.00 80 1014.8
20260503170418 16 216 3.2 11.3 0.00 0.00 0.00 80 1014.6
20260503150734 14 53 0.0 3.2 0.00 0.00 0.00 92 1014.0
20260503150233 14 355 1.6 3.2 0.00 0.00 0.00 92 1014.0
20260503131223 13 161 0.0 3.2 0.00 0.00 0.00 93 1013.3
20260503130724 13 161 0.0 3.2 0.00 0.00 0.00 93 1013.1
20260503130223 13 161 0.0 3.2 0.00 0.00 0.00 93 1013.2
20260503110659 13 207 4.8 11.3 0.00 0.00 0.00 92 1012.9
20260503110158 13 192 4.8 11.3 0.00 0.00 0.00 92 1012.9
20260503100134 14 178 0.0 0.0 0.00 0.00 0.00 90 1013.1
20260503081430 15 146 4.8 11.3 0.00 0.00 0.00 86 1013.6
20260503080922 15 163 6.4 11.3 0.00 0.00 0.00 87 1013.6
20260503080417 15 168 4.8 11.3 0.00 0.00 0.00 87 1013.6
20260503072835 15 173 4.8 9.7 0.00 0.00 0.00 86 1013.5
20260503072329 15 150 4.8 11.3 0.00 0.00 0.00 86 1013.4
20260503071823 15 148 3.2 11.3 0.00 0.00 0.00 86 1013.3
20260503071318 15 160 3.2 9.7 0.00 0.00 0.00 86 1013.1
20260503070810 15 153 1.6 6.4 0.00 0.00 0.00 86 1013.0
20260503070306 15 149 1.6 8.0 0.00 0.00 0.00 86 1013.1
20260503060153 15 200 0.0 3.2 0.00 0.00 0.00 84 1013.0
20260503054636 15 186 1.6 4.8 0.00 0.00 0.00 83 1012.9
20260503054128 15 197 1.6 4.8 0.00 0.00 0.00 83 1013.1
20260503053623 15 200 0.0 4.8 0.00 0.00 0.00 83 1013.2
20260503053117 15 209 0.0 0.0 0.00 0.00 0.00 82 1013.2
20260503052611 16 161 0.0 4.8 0.00 0.00 0.00 82 1013.2
20260503052104 16 218 1.6 6.4 0.00 0.00 0.00 82 1013.2
20260503051601 16 159 3.2 8.0 0.00 0.00 0.00 82 1013.3
20260503051052 16 176 3.2 8.0 0.00 0.00 0.00 81 1013.3
20260503050040 16 157 1.6 6.4 0.00 0.00 0.00 80 1013.1
20260503045029 16 155 3.2 9.7 0.00 0.00 0.00 80 1013.0
20260503044523 16 155 4.8 11.3 0.00 0.00 0.00 80 1013.0
20260503044017 16 174 3.2 9.7 0.00 0.00 0.00 80 1012.9
20260503043512 16 155 3.2 9.7 0.00 0.00 0.00 80 1013.0
20260503042459 16 152 4.8 11.3 0.00 0.00 0.00 79 1012.8
20260503041953 16 185 6.4 11.3 0.00 0.00 0.00 78 1012.8
20260503041448 16 162 6.4 12.9 0.00 0.00 0.00 78 1012.7
20260503040943 16 211 8.0 14.5 0.00 0.00 0.00 77 1012.6
20260503040439 16 160 8.0 16.1 0.00 0.00 0.00 77 1012.7
20260503035939 16 164 8.0 16.1 0.00 0.00 0.00 77 1012.6
20260503034940 16 145 6.4 14.5 0.00 0.00 0.00 77 1012.3
20260503034439 17 170 6.4 14.5 0.00 0.00 0.00 76 1012.3
20260503033940 17 170 6.4 14.5 0.00 0.00 0.00 76 1012.3
20260503033439 17 168 6.4 12.9 0.00 0.00 0.00 76 1012.1
20260503032939 17 165 6.4 14.5 0.00 0.00 0.00 75 1011.9
20260503032440 17 138 6.4 14.5 0.00 0.00 0.00 75 1011.9
20260503031939 17 163 6.4 14.5 0.00 0.00 0.00 74 1011.9
20260503031439 17 184 6.4 14.5 0.00 0.00 0.00 74 1011.8
20260503030939 18 167 6.4 14.5 0.00 0.00 0.00 73 1011.8
20260503030439 18 165 4.8 12.9 0.00 0.00 0.00 73 1011.5
20260503024937 18 180 8.0 14.5 0.00 0.00 0.00 72 1011.4
20260503024438 18 211 8.0 14.5 0.00 0.00 0.00 72 1011.2
20260503023435 18 198 6.4 12.9 0.00 0.00 0.00 71 1011.1
20260503022934 18 197 6.4 12.9 0.00 0.00 0.00 71 1011.0
20260503022435 19 207 6.4 11.3 0.00 0.00 0.00 70 1010.9
20260503021936 19 216 6.4 11.3 0.00 0.00 0.00 70 1011.0
20260503021435 19 207 6.4 12.9 0.00 0.00 0.00 70 1010.8
20260503020935 19 197 6.4 12.9 0.00 0.00 0.00 69 1010.8
20260503020434 20 229 8.0 17.7 0.00 0.00 0.00 68 1010.7
20260503015935 20 215 8.0 17.7 0.00 0.00 0.00 68 1010.7
20260503015435 20 197 6.4 14.5 0.00 0.00 0.00 67 1010.7
20260503014935 20 163 8.0 14.5 0.00 0.00 0.00 67 1010.8
20260503014435 20 188 8.0 14.5 0.00 0.00 0.00 67 1010.7
20260503013935 20 193 8.0 17.7 0.00 0.00 0.00 66 1010.7
20260503011433 21 159 6.4 16.1 0.00 0.00 0.00 64 1010.6
20260503010933 21 211 6.4 16.1 0.00 0.00 0.00 65 1010.7
20260503010433 21 217 8.0 16.1 0.00 0.00 0.00 64 1010.6
20260503005932 21 149 8.0 14.5 0.00 0.00 0.00 64 1010.6
20260503005433 21 203 6.4 16.1 0.00 0.00 0.00 64 1010.6
20260503004432 22 148 6.4 12.9 0.00 0.00 0.00 63 1010.6
20260503003432 22 178 6.4 16.1 0.00 0.00 0.00 63 1010.7
20260503002933 22 202 6.4 14.5 0.00 0.00 0.00 63 1010.8
20260503002433 22 221 6.4 14.5 0.00 0.00 0.00 63 1010.8
20260503001933 22 215 6.4 16.1 0.00 0.00 0.00 63 1010.7
20260503001433 22 232 6.4 16.1 0.00 0.00 0.00 63 1010.7
20260503000933 22 170 8.0 16.1 0.00 0.00 0.00 64 1010.7
20260503000433 22 186 8.0 16.1 0.00 0.00 0.00 63 1010.8
20260502235931 22 213 6.4 14.5 0.00 0.00 0.00 63 1010.8
20260502235431 22 221 6.4 16.1 0.00 0.00 0.00 63 1010.7
20260502234931 22 182 8.0 17.7 0.00 0.00 0.00 64 1010.6
20260502234429 22 146 8.0 17.7 0.00 0.00 0.00 64 1010.7
20260502233429 22 229 9.7 17.7 0.00 0.00 0.00 65 1010.7
20260502232927 22 171 9.7 17.7 0.00 0.00 0.00 64 1010.8
20260502231926 22 178 8.0 17.7 0.00 0.00 0.00 64 1010.9
20260502230928 22 146 6.4 16.1 0.00 0.00 0.00 65 1010.8
20260502230426 22 194 6.4 16.1 0.00 0.00 0.00 64 1010.9
20260502225919 22 192 8.0 16.1 0.00 0.00 0.00 65 1011.0
20260502225415 22 190 9.7 17.7 0.00 0.00 0.00 65 1011.0
20260502224914 22 171 11.3 17.7 0.00 0.00 0.00 65 1011.1
20260502224415 22 198 11.3 19.3 0.00 0.00 0.00 65 1011.5
20260502223915 22 196 11.3 19.3 0.00 0.00 0.00 65 1011.5
20260502223415 22 161 11.3 19.3 0.00 0.00 0.00 65 1011.6
20260502222914 22 199 9.7 17.7 0.00 0.00 0.00 65 1011.7
20260502222415 22 196 9.7 20.9 0.00 0.00 0.00 65 1011.8
20260502221914 22 221 11.3 20.9 0.00 0.00 0.00 65 1012.0
20260502221414 22 211 11.3 19.3 0.00 0.00 0.00 64 1011.9
20260502220914 22 187 9.7 19.3 0.00 0.00 0.00 63 1012.0